星链-4029 (STARLINK-4029 )

导读 | 星芒AI

STARLINK-4029 是 SpaceX Starlink 项目中的一颗低轨通信卫星,属于第 14 批组网发射的“批 4”卫星之一。该卫星于 2022 年 11 月 18 日由猎鹰 9 号火箭送入近地轨道,旨在为全球提供高速互联网服务。它运行在约 550 公里的高度,采用先进的相控阵天线和激光通信技术,以提升网络连接的稳定性和效率。作为 Starlink 卫星群的一部分,STARLINK-4029 支持偏远地区的宽带接入,并为军事、航空和航海等专业领域提供通信支持。

基本信息
目录编号:
52685
目录名称:
STARLINK-4029
国际标识:
2022-053AF
轨道中心:
EARTH
卫星名称:
星链-4029
卫星全名:
星链-4029 (STARLINK-4029 )
卫星状态:
在轨 (已飞行1313 天)
发射日期:
2022-05-18 UTC
国别 :
美国 (US)
星等 :
--
轨道信息
数据来源 国际轨道数据 AOE轨道数据
星历时间 2025-12-21T00:54:33+0800
12小时前
查看轨道信息
2025-12-20T14:00:00+0800
23小时前
查看轨道信息
半长轴 6917.934km 6917.868km
偏心率 0.0000988 0.0001765
轨道倾角 53.217° 53.218°
近地点辐角 102.661° 153.462°
升交点赤经 138.701° 140.742°
平近点角 257.450° 256.339°
近地点 539.113km 538.509km
远地点 540.481km 540.953km
周期 95.439分钟 95.437分钟
每日圈数 15.088227 15.088441
详细信息
固有亮度:
5
最大亮度:
2.5
卫星平台:
Starlink v1.5
覆盖范围:
全球
运营商:
太空探索技术公司
运营商所在国:
美国
制造商(研发单位):
太空探索技术公司
制造商所在国:
美国
使用方式:
暂无
卫星简介
星链(Starlink)计划是由太空探索技术公司(SpaceX)提出的一个巨型低轨卫星互联网星座项目,计划在2019年至2024年间在太空搭建由约1.2万颗卫星组成的“星链”网络,其中1584颗将部署在地球上空550千米处的近地轨道,并从2020年开始工作。该卫星仍在工作。
2D轨道图
3D轨道图
轨道高度分析图
轨道倾角分析图
轨道综合分析图
查看轨道综合分析图